TELSTAR 18V (APSTAR 5C)

Last updated on Nov. 16, 2019, 4:19 a.m. UTC

1 43611U 18069A   19318.94215892 -.00000280  00000-0  00000+0 0  9991
2 43611   0.0154 292.4999 0002172 303.7966 294.6791  1.00272207  4482
UTC
Height (km)
Latitude
Longitude
Inclination
Orbital Period
UTC large
Height (km)
Speed (km/s)
/
Latitude / Longitude
Inclination (degrees)
Orbital Period (minutes)
Azimuth
Elevation
Range (km)
Doppler Factor
iOS Compass Heading
iOS Angle

Next 30 passes for location: Hong Kong

Rise time Rise Azimuth (degrees) Set time Set Azimuth (degrees) Duration Max altitude (degrees)

No matching passes for this satellites